Fort Collins, CO

4:30 AM MDT on August 19, 2017 (GMT -0600)
Fort Collins-Loveland Municipal

Weather History for KFNL - November, 2012

Change the Weather History Date:

Sunday, November 11, 2012

  Actual Average Record
Temperature  
Mean Temperature 21 °F -  
Max Temperature 30 °F - 66 °F (2005)
Min Temperature 12 °F - 5 °F (2014)
Degree Days  
Heating Degree Days 44    
Month to date heating degree days  
Cooling Degree Days 0    
Month to date cooling degree days  
Moisture  
Dew Point 11 °F    
Average Humidity 68    
Maximum Humidity 93    
Minimum Humidity 37    
Precipitation  
Precipitation 0.00 in - 0.19 in (1997)
Sea Level Pressure  
Sea Level Pressure 29.99 in    
Wind  
Wind Speed 8 mph (SSE)    
Max Wind Speed 21 mph    
Max Gust Speed 29 mph    
Visibility 10 miles    
Events      
T = Trace of Precipitation, MM = Missing Value Source: NWS Daily Summary

Daily Weather History Graph

Daily Weather History Graph

Search for Another Location

Airport or City:

Trip Planner

Search our weather history database for the weather conditions in past years. The results will help you decide how hot, cold, wet, or windy it might be!

Date:

Astronomy

Nov. 11, 2012 Rise Set
Actual Time 6:42 AM MST 4:45 PM MST
Civil Twilight 6:13 AM MST 5:14 PM MST
Nautical Twilight 5:40 AM MST 5:47 PM MST
Astronomical Twilight 5:08 AM MST 6:19 PM MST
Moon 3:58 AM MST (11/11) 3:11 PM MST (11/11)
Length of Visible Light 11h 01m
Length of Day
10h 03m
Waning Crescent, 7% of the Moon is Illuminated
Nov 11
Waning Crescent
Nov 13
New
Nov 20
First Quarter
Nov 28
Full
Dec 6
Last Quarter

Hourly Weather History & Observations

Time (MST) Temp. Windchill Dew Point Humidity Pressure Visibility Wind Dir Wind Speed Gust Speed Precip Events Conditions
12:15 AM 17.6 °F 8.2 °F 15.8 °F 93% 29.85 in 10.0 mi SSE 6.9 mph - N/A   Overcast
12:35 AM 19.4 °F 8.6 °F 17.6 °F 93% 29.85 in 10.0 mi SSE 9.2 mph - N/A   Overcast
12:55 AM 19.4 °F 10.4 °F 15.8 °F 86% 29.86 in 10.0 mi SSE 6.9 mph - N/A   Overcast
1:15 AM 19.4 °F 9.5 °F 15.8 °F 86% 29.86 in 10.0 mi SSE 8.1 mph - N/A   Overcast
1:35 AM 19.4 °F 8.6 °F 15.8 °F 86% 29.86 in 10.0 mi SSE 9.2 mph - N/A   Overcast
1:55 AM 19.4 °F 9.5 °F 15.8 °F 86% 29.87 in 10.0 mi SSE 8.1 mph - N/A   Overcast
2:15 AM 19.4 °F 11.5 °F 15.8 °F 86% 29.87 in 10.0 mi South 5.8 mph - N/A   Overcast
2:35 AM 19.4 °F 8.6 °F 15.8 °F 86% 29.87 in 10.0 mi South 9.2 mph - N/A   Overcast
2:55 AM 19.4 °F 7.9 °F 15.8 °F 86% 29.88 in 10.0 mi South 10.4 mph - N/A   Overcast
3:15 AM 19.4 °F 7.9 °F 15.8 °F 86% 29.88 in 10.0 mi South 10.4 mph - N/A   Overcast
3:35 AM 17.6 °F 3.7 °F 14.0 °F 86% 29.88 in 10.0 mi South 13.8 mph - N/A   Overcast
3:55 AM 17.6 °F 4.3 °F 14.0 °F 86% 29.89 in 10.0 mi South 12.7 mph - N/A   Overcast
4:35 AM 17.6 °F 3.7 °F 12.2 °F 79% 29.89 in 10.0 mi South 13.8 mph - N/A   Partly Cloudy
4:55 AM 15.8 °F 1.4 °F 12.2 °F 86% 29.89 in 10.0 mi SSE 13.8 mph - N/A   Scattered Clouds
5:15 AM 15.8 °F 3.4 °F 10.4 °F 79% 29.90 in 10.0 mi South 10.4 mph - N/A   Scattered Clouds
6:35 AM 15.8 °F 5.1 °F 8.6 °F 73% 29.93 in 10.0 mi SSE 8.1 mph - N/A   Overcast
6:55 AM 15.8 °F 7.2 °F 10.4 °F 79% 29.94 in 10.0 mi South 5.8 mph - N/A   Overcast
7:15 AM 15.8 °F 6.1 °F 10.4 °F 79% 29.95 in 10.0 mi South 6.9 mph - N/A   Overcast
7:35 AM 15.8 °F 6.1 °F 10.4 °F 79% 29.96 in 10.0 mi South 6.9 mph - N/A   Overcast
7:55 AM 14.0 °F 3.9 °F 8.6 °F 79% 29.96 in 10.0 mi South 6.9 mph - N/A   Mostly Cloudy
8:35 AM 14.0 °F 3.9 °F 8.6 °F 79% 29.97 in 10.0 mi SSE 6.9 mph - N/A   Clear
8:55 AM 12.2 °F 2.9 °F 8.6 °F 85% 29.98 in 10.0 mi SE 5.8 mph - N/A   Clear
9:15 AM 15.8 °F 7.2 °F 8.6 °F 73% 29.97 in 10.0 mi SE 5.8 mph - N/A   Clear
9:35 AM 15.8 °F 8.6 °F 10.4 °F 79% 29.99 in 10.0 mi SE 4.6 mph - N/A   Clear
9:55 AM 17.6 °F 8.2 °F 10.4 °F 73% 29.99 in 10.0 mi ESE 6.9 mph - N/A   Clear
10:15 AM 17.6 °F 7.3 °F 10.4 °F 73% 29.99 in 10.0 mi SSE 8.1 mph - N/A   Clear
10:35 AM 17.6 °F 8.2 °F 10.4 °F 73% 29.99 in 10.0 mi SE 6.9 mph - N/A   Clear
11:15 AM 19.4 °F 14.3 °F 14.0 °F 80% 29.99 in 10.0 mi SE 3.5 mph - N/A   Clear
11:35 AM 19.4 °F 12.8 °F 12.2 °F 74% 29.98 in 10.0 mi SE 4.6 mph - N/A   Clear
11:55 AM 21.2 °F 16.4 °F 15.8 °F 80% 29.98 in 10.0 mi ESE 3.5 mph - N/A   Clear
12:15 PM 23.0 °F 17.0 °F 17.6 °F 80% 29.98 in 10.0 mi SSE 4.6 mph - N/A   Clear
12:35 PM 21.2 °F 12.6 °F 17.6 °F 86% 29.97 in 10.0 mi SSE 6.9 mph - N/A   Clear
12:55 PM 21.2 °F 13.6 °F 15.8 °F 80% 29.97 in 10.0 mi SSE 5.8 mph - N/A   Scattered Clouds
1:15 PM 23.0 °F 14.7 °F 15.8 °F 74% 29.97 in 10.0 mi SSE 6.9 mph - N/A   Partly Cloudy
1:35 PM 24.8 °F 20.5 °F 17.6 °F 74% 29.97 in 10.0 mi SE 3.5 mph - N/A   Clear
1:55 PM 23.0 °F 17.0 °F 17.6 °F 80% 29.97 in 10.0 mi East 4.6 mph - N/A   Clear
2:15 PM 28.4 °F 20.4 °F 17.6 °F 64% 29.97 in 10.0 mi North 8.1 mph - N/A   Clear
2:35 PM 30.2 °F 18.5 °F 12.2 °F 47% 29.97 in 10.0 mi NNW 17.3 mph - N/A   Clear
2:55 PM 28.4 °F 24.6 °F 12.2 °F 51% 29.99 in 10.0 mi SW 3.5 mph - N/A   Clear
3:15 PM 30.2 °F 18.5 °F 6.8 °F 37% 29.99 in 10.0 mi West 17.3 mph 27.6 mph N/A   Clear
3:35 PM 30.2 °F 17.4 °F 8.6 °F 40% 30.00 in 10.0 mi West 20.7 mph 28.8 mph N/A   Clear
3:55 PM 30.2 °F 21.3 °F 6.8 °F 37% 30.01 in 10.0 mi West 10.4 mph 24.2 mph N/A   Clear
4:15 PM 30.2 °F 23.4 °F 6.8 °F 37% 30.01 in 10.0 mi WNW 6.9 mph - N/A   Clear
4:35 PM 28.4 °F 20.4 °F 5.0 °F 37% 30.03 in 10.0 mi NNW 8.1 mph - N/A   Clear
4:55 PM 24.8 °F 15.3 °F 8.6 °F 50% 30.03 in 10.0 mi NNW 9.2 mph - N/A   Clear
5:15 PM 26.6 °F 22.6 °F 6.8 °F 43% 30.04 in 10.0 mi WNW 3.5 mph - N/A   Clear
5:35 PM 26.6 °F 22.6 °F 3.2 °F 37% 30.05 in 10.0 mi NW 3.5 mph - N/A   Clear
5:55 PM 26.6 °F - 3.2 °F 37% 30.06 in 10.0 mi Calm Calm - N/A   Clear
6:15 PM 26.6 °F - 3.2 °F 37% 30.07 in 10.0 mi Calm Calm - N/A   Clear
6:35 PM 23.0 °F 13.9 °F 3.2 °F 43% 30.07 in 10.0 mi SSE 8.1 mph - N/A   Clear
6:55 PM 23.0 °F 13.9 °F 6.8 °F 50% 30.08 in 10.0 mi East 8.1 mph - N/A   Clear
7:15 PM 21.2 °F 10.1 °F 6.8 °F 54% 30.08 in 10.0 mi East 10.4 mph - N/A   Clear
7:55 PM 21.2 °F 7.8 °F 8.6 °F 58% 30.10 in 10.0 mi East 15.0 mph - N/A   Clear
8:15 PM 21.2 °F 8.3 °F 10.4 °F 63% 30.10 in 10.0 mi East 13.8 mph - N/A   Clear
8:35 PM 21.2 °F 8.9 °F 8.6 °F 58% 30.10 in 10.0 mi East 12.7 mph - N/A   Clear
8:55 PM 19.4 °F 6.0 °F 8.6 °F 63% 30.11 in 10.0 mi ESE 13.8 mph - N/A   Clear
9:15 PM 19.4 °F 6.6 °F 8.6 °F 63% 30.12 in 10.0 mi ESE 12.7 mph - N/A   Clear
9:35 PM 19.4 °F 6.6 °F 10.4 °F 68% 30.12 in 10.0 mi ESE 12.7 mph - N/A   Clear
10:15 PM 21.2 °F 8.3 °F 8.6 °F 58% 30.13 in 10.0 mi ESE 13.8 mph - N/A   Clear
10:35 PM 17.6 °F 7.3 °F 6.8 °F 63% 30.13 in 10.0 mi SE 8.1 mph - N/A   Clear
10:55 PM 12.2 °F - 1.4 °F 62% 30.14 in 10.0 mi Calm Calm - N/A   Clear
11:15 PM 12.2 °F - 5.0 °F 73% 30.15 in 10.0 mi Calm Calm - N/A   Clear
11:55 PM 15.8 °F - 5.0 °F 62% 30.17 in 10.0 mi Calm Calm - N/A   Clear